Regional Weather Roundup
Issued by NWS Sterling, VA

Home | Current Version | Previous Version | Graphics & Text | Print | Product List | Glossary On
Versions: 1 2 3 4 5 6 7 8 9 10 11 12 13 14 15 16 17 18 19 20 21 22 23 24 25 26 27 28 29 30 31 32 33 34 35 36 37 38 39 40 41 42 43 44 45 46 47 48 49 50
330
ASUS41 KLWX 232110
RWRLWX

REGIONAL WEATHER ROUNDUP
NATIONAL WEATHER SERVICE BALTIMORE MD/WASHINGTON DC
500 PM EDT SUN APR 23 2017

Note: "FAIR" indicates few or no clouds below 12,000 feet
with no significant weather and/or obstructions to visibility.
 TC=TEMPERATURE CELSIUS

 * =Non NWS site. Station does not report precipitation (e.g. rain,
    snow, etc.), thunder, or fog.

DCZ001-MDZ009-015-VAZ040>042-051-053>054-232200-
WASHINGTON METRO

CITY           SKY/WX    TMP DP  RH WIND       PRES   REMARKS
WASHINGTON NAT CLOUDY    60  44  55 SE8       30.09S
DULLES         CLOUDY    58  42  55 SE6       30.08S
ANDREWS AFB    PTSUNNY   57  43  58 E6        30.07F
FT BELVOIR     CLOUDY    59  43  55 SE3       30.09S
QUANTICO       CLOUDY    60  45  57 SE3       30.10S
COLLEGE PARK*  PTSUNNY   58  42  54 E5        30.08F
LEESBURG*      CLOUDY    61  45  55 SE5       30.08S
MANASSAS*        N/A     58  43  57 SE7       30.10R

$$

MDZ006>007-011-014-232200-
BALTIMORE METRO

CITY           SKY/WX    TMP DP  RH WIND       PRES   REMARKS
BWI AIRPORT    CLOUDY    58  43  57 SE8       30.08S
MD SCIENCE CTR   N/A     60  41  49 MISG      30.09S
MARTIN STATE   PTSUNNY   61  46  59 SE5       30.10S
ANNAPOLIS      CLOUDY    60  44  55 CALM      30.08F
FORT MEADE*    CLOUDY    57  41  54 E5        30.11S

$$

MDZ012-015-019>023-232200-
MARYLAND EASTERN SHORE

CITY           SKY/WX    TMP DP  RH WIND       PRES   REMARKS
OCEAN CITY     CLOUDY    52  46  80 E12       30.10F
SALISBURY      CLOUDY    58  46  64 NE9       30.08S
BAY BRIDGE AP* MOSUNNY   57  45  62 N3        30.08F
CAMBRIDGE*     PTSUNNY   59  45  58 E7        30.08S
EASTON*        CLOUDY    61  45  55 SE6       30.12R

$$

MDZ017>025-232200-
SOUTHERN MARYLAND

CITY           SKY/WX    TMP DP  RH WIND       PRES   REMARKS
PATUXENT RIVER CLOUDY    57  49  74 CALM      30.08S
ST INIGOES     CLOUDY    58  47  66 N3        30.07F
LEONARDTOWN*   CLOUDY    55  45  67 E5        30.10R

$$

MDZ003>005-232200-
NORTH CENTRAL MARYLAND

CITY           SKY/WX    TMP DP  RH WIND       PRES   REMARKS
FREDERICK*     SUNNY     64  46  52 CALM      30.09F
HAGERSTOWN APT CLOUDY    64  36  35 E6        30.05S
WESTMINSTER*   CLOUDY    64  43  45 SE3       30.06S

$$

MDZ501>502-232200-
WESTERN MARYLAND

CITY           SKY/WX    TMP DP  RH WIND       PRES   REMARKS
OAKLAND*       CLOUDY    54  32  43 E9        30.04F
CUMBERLAND*    CLOUDY    64  34  32 SE3       30.07S

$$

VAZ025>031-232200-
SHENANDOAH VALLEY

CITY           SKY/WX    TMP DP  RH WIND       PRES   REMARKS
WINCHESTER*    CLOUDY    57  41  54 E5        30.06F
FRONT ROYAL*   CLOUDY    57  43  58 CALM      30.06S
LURAY*         CLOUDY    57  43  58 E5        30.06S
NEW MARKET*    PTSUNNY   57  41  55 NE3       30.05S
STAUNTON*      CLOUDY    55  42  61 E5        30.08S
WAYNESBORO*    CLOUDY    54  39  56 E7        30.06S

$$

WVZ021-048>050-054>055-232200-
EASTERN WEST VIRGINIA PANHANDLE

CITY           SKY/WX    TMP DP  RH WIND       PRES   REMARKS
MARTINSBURG    CLOUDY    60  41  49 SE5       30.05F
PETERSBURG*    CLOUDY    62  42  47 CALM      30.05S

$$

VAZ036>039-050-232200-
CENTRAL FOOTHILLS

CITY           SKY/WX    TMP DP  RH WIND       PRES   REMARKS
CHARLOTTESVILL CLOUDY    57  43  59 NE6       30.07F
CULPEPER*      CLOUDY    58  44  59 CALM      30.09S
ORANGE*        CLOUDY    55  43  62 CALM      30.08F
GORDONSVILLE*  CLOUDY    56  45  66 N6        30.07F
WARRENTON*     CLOUDY    59  41  51 E3        30.09R

$$

VAZ055>057-232200-
NORTH AND CENTRAL PIEDMONT

CITY           SKY/WX    TMP DP  RH WIND       PRES   REMARKS
FREDERICKSBRG* CLOUDY    58  47  65 NE5       30.09R
STAFFORD*      CLOUDY    56  45  65 CALM      30.13R

$$

NCZ024-NYZ072-PAZ021-071-VAZ022-071-232200-
OTHER REGIONAL OBSERVATIONS

CITY           SKY/WX    TMP DP  RH WIND       PRES   REMARKS
NEW YORK CITY  CLOUDY    62  36  37 S9        30.08S
PHILADELPHIA   CLOUDY    64  38  38 CALM      30.07S
PITTSBURGH     PTSUNNY   67  32  27 E6        30.01F
ROANOKE        RAIN      48  47  96 CALM      30.07S FOG
RICHMOND       LGT RAIN  55  49  80 NE7       30.07S
RALEIGH        CLOUDY    54  51  90 E16G23    29.98F FOG

$$

ANZ530>537-232200-
MARINE OBSERVATIONS

STATION/POSITION TIME  TEMP    WIND        PRES
                       AIR SEA DIR/SP/G
                 (UTC) (F)     (DEG/KT/KT) (MB)
THOMAS PT LIGHT  2100   57 58  360/  7/  7   N/A
BALT KEY BRIDGE  2048   57     150/  7/  9 1018.8R
COVE POINT       2048   55     350/  8/  9 1019.4S
LEWISETTA        2048   57 63  100/  3/  4 1018.3F
SOLOMONS ISLAND  2036   57 62  120/  3/  4   N/A
PINEY POINT      2048           80/  4/  5   N/A

$$





USA.gov is the U.S. government's official web portal to all federal, state and local government web resources and services.